STARLINK-34276

Last updated on Sat Jul 05 2025 00:02:05 GMT+0000 (Coordinated Universal Time)

1 64263U 25120H 25185.58335648 .00011419 00000+0 29510-3 0 9999 2 64263 53.1600 193.4804 0001123 71.3416 106.9960 15.39612851 5979
UTC large
Height (km)
Speed (km/s)
/
Latitude / Longitude
Inclination (degrees)
Orbital Period (minutes)
Azimuth
Elevation
Range (km)
Doppler Factor

Next 0 passes for location: London (51.5072 / 0.1276)

Sorry there are no passes over London.